owner,sensor,date,latitude,longitude,vertical_datum,wind_speed,wind_to_direction,wind_speed_of_gust,qcFlag 
DISL,ioos:station:DISL:BSCA:1,2017-07-01T00:00:00Z,30.3288,-87.8293,0.0,5.16,202.2,-999.0,'1111122,1111122,1111122' 
DISL,ioos:station:DISL:BSCA:1,2017-07-01T00:30:00Z,30.3288,-87.8293,0.0,4.91,209.7,-999.0,'1111122,1111122,1111122' 
DISL,ioos:station:DISL:BSCA:1,2017-07-01T01:00:00Z,30.3288,-87.8293,0.0,5.32,206.4,-999.0,'1111122,1111122,1111122' 
DISL,ioos:station:DISL:BSCA:1,2017-07-01T01:30:00Z,30.3288,-87.8293,0.0,4.04,205.9,-999.0,'1111122,1111122,1111122' 
DISL,ioos:station:DISL:BSCA:1,2017-07-01T02:00:00Z,30.3288,-87.8293,0.0,3.62,200.5,-999.0,'1111122,1111122,1111122' 
DISL,ioos:station:DISL:BSCA:1,2017-07-01T02:30:00Z,30.3288,-87.8293,0.0,3.8,188.2,-999.0,'1111122,1111122,1111122' 
DISL,ioos:station:DISL:BSCA:1,2017-07-01T03:00:00Z,30.3288,-87.8293,0.0,4.76,173.0,-999.0,'1111122,1111122,1111122' 
DISL,ioos:station:DISL:BSCA:1,2017-07-01T03:30:00Z,30.3288,-87.8293,0.0,5.01,159.7,-999.0,'1111122,1111122,1111122' 
DISL,ioos:station:DISL:BSCA:1,2017-07-01T04:00:00Z,30.3288,-87.8293,0.0,4.67,159.0,-999.0,'1111122,1111122,1111122' 
DISL,ioos:station:DISL:BSCA:1,2017-07-01T04:30:00Z,30.3288,-87.8293,0.0,5.13,170.1,-999.0,'1111122,1111122,1111122' 
DISL,ioos:station:DISL:BSCA:1,2017-07-01T05:00:00Z,30.3288,-87.8293,0.0,7.32,161.2,-999.0,'1111122,1111122,1111122' 
DISL,ioos:station:DISL:BSCA:1,2017-07-01T05:30:00Z,30.3288,-87.8293,0.0,6.49,170.9,-999.0,'1111122,1111122,1111122' 
DISL,ioos:station:DISL:BSCA:1,2017-07-01T06:00:00Z,30.3288,-87.8293,0.0,6.82,177.6,-999.0,'1111122,1111122,1111122' 
DISL,ioos:station:DISL:BSCA:1,2017-07-01T06:30:00Z,30.3288,-87.8293,0.0,7.08,183.1,-999.0,'1111122,1111122,1111122' 
DISL,ioos:station:DISL:BSCA:1,2017-07-01T07:00:00Z,30.3288,-87.8293,0.0,6.86,192.5,-999.0,'1111122,1111122,1111122' 
DISL,ioos:station:DISL:BSCA:1,2017-07-01T07:30:00Z,30.3288,-87.8293,0.0,6.22,195.4,-999.0,'1111122,1111122,1111122' 
DISL,ioos:station:DISL:BSCA:1,2017-07-01T08:00:00Z,30.3288,-87.8293,0.0,5.58,201.4,-999.0,'1111122,1111122,1111122' 
DISL,ioos:station:DISL:BSCA:1,2017-07-01T08:30:00Z,30.3288,-87.8293,0.0,5.41,216.7,-999.0,'1111122,1111122,1111122' 
DISL,ioos:station:DISL:BSCA:1,2017-07-01T09:00:00Z,30.3288,-87.8293,0.0,4.86,207.4,-999.0,'1111122,1111122,1111122' 
DISL,ioos:station:DISL:BSCA:1,2017-07-01T09:30:00Z,30.3288,-87.8293,0.0,4.28,206.0,-999.0,'1111122,1111122,1111122' 
DISL,ioos:station:DISL:BSCA:1,2017-07-01T10:00:00Z,30.3288,-87.8293,0.0,4.07,214.2,-999.0,'1111122,1111122,1111122' 
DISL,ioos:station:DISL:BSCA:1,2017-07-01T10:30:00Z,30.3288,-87.8293,0.0,4.04,217.7,-999.0,'1111122,1111122,1111122' 
DISL,ioos:station:DISL:BSCA:1,2017-07-01T11:00:00Z,30.3288,-87.8293,0.0,4.28,207.5,-999.0,'1111122,1111122,1111122' 
DISL,ioos:station:DISL:BSCA:1,2017-07-01T11:30:00Z,30.3288,-87.8293,0.0,3.75,207.6,-999.0,'1111122,1111122,1111122' 
DISL,ioos:station:DISL:BSCA:1,2017-07-01T12:00:00Z,30.3288,-87.8293,0.0,2.73,25.89,-999.0,'1111122,1111122,1111122' 
DISL,ioos:station:DISL:BSCA:1,2017-07-01T12:30:00Z,30.3288,-87.8293,0.0,2.84,178.2,-999.0,'1111122,1111122,1111122' 
DISL,ioos:station:DISL:BSCA:1,2017-07-01T13:00:00Z,30.3288,-87.8293,0.0,1.09,275.7,-999.0,'1111122,1111122,1111122' 
DISL,ioos:station:DISL:BSCA:1,2017-07-01T13:30:00Z,30.3288,-87.8293,0.0,2.06,53.21,-999.0,'1111122,1111122,1111122' 
DISL,ioos:station:DISL:BSCA:1,2017-07-01T14:00:00Z,30.3288,-87.8293,0.0,0.63,47.06,-999.0,'1111122,1111122,1111122' 
DISL,ioos:station:DISL:BSCA:1,2017-07-01T14:30:00Z,30.3288,-87.8293,0.0,0.51,12.67,-999.0,'1111122,1111122,1111122' 
DISL,ioos:station:DISL:BSCA:1,2017-07-01T15:00:00Z,30.3288,-87.8293,0.0,0.6,247.6,-999.0,'1111122,1111122,1111122' 
DISL,ioos:station:DISL:BSCA:1,2017-07-01T15:30:00Z,30.3288,-87.8293,0.0,9.4,295.1,-999.0,'1111122,1111122,1111122' 
DISL,ioos:station:DISL:BSCA:1,2017-07-01T16:00:00Z,30.3288,-87.8293,0.0,4.34,292.9,-999.0,'1111122,1111122,1111122' 
DISL,ioos:station:DISL:BSCA:1,2017-07-01T16:30:00Z,30.3288,-87.8293,0.0,1.26,124.5,-999.0,'1111122,1111122,1111122' 
DISL,ioos:station:DISL:BSCA:1,2017-07-01T17:00:00Z,30.3288,-87.8293,0.0,0.45,182.6,-999.0,'1111122,1111122,1111122' 
DISL,ioos:station:DISL:BSCA:1,2017-07-01T17:30:00Z,30.3288,-87.8293,0.0,1.53,236.9,-999.0,'1111122,1111122,1111122' 
DISL,ioos:station:DISL:BSCA:1,2017-07-01T18:00:00Z,30.3288,-87.8293,0.0,1.48,227.8,-999.0,'1111122,1111122,1111122' 
DISL,ioos:station:DISL:BSCA:1,2017-07-01T18:30:00Z,30.3288,-87.8293,0.0,1.73,244.8,-999.0,'1111122,1111122,1111122' 
DISL,ioos:station:DISL:BSCA:1,2017-07-01T19:00:00Z,30.3288,-87.8293,0.0,1.89,244.2,-999.0,'1111122,1111122,1111122' 
DISL,ioos:station:DISL:BSCA:1,2017-07-01T19:30:00Z,30.3288,-87.8293,0.0,2.16,225.7,-999.0,'1111122,1111122,1111122' 
DISL,ioos:station:DISL:BSCA:1,2017-07-01T20:00:00Z,30.3288,-87.8293,0.0,2.13,230.6,-999.0,'1111122,1111122,1111122' 
DISL,ioos:station:DISL:BSCA:1,2017-07-01T20:30:00Z,30.3288,-87.8293,0.0,3.16,200.4,-999.0,'1111122,1111122,1111122' 
DISL,ioos:station:DISL:BSCA:1,2017-07-01T21:00:00Z,30.3288,-87.8293,0.0,3.99,190.8,-999.0,'1111122,1111122,1111122' 
DISL,ioos:station:DISL:BSCA:1,2017-07-01T21:30:00Z,30.3288,-87.8293,0.0,4.57,181.4,-999.0,'1111122,1111122,1111122' 
DISL,ioos:station:DISL:BSCA:1,2017-07-01T22:00:00Z,30.3288,-87.8293,0.0,5.06,181.6,-999.0,'1111122,1111122,1111122' 
DISL,ioos:station:DISL:BSCA:1,2017-07-01T22:30:00Z,30.3288,-87.8293,0.0,4.87,181.9,-999.0,'1111122,1111122,1111122' 
DISL,ioos:station:DISL:BSCA:1,2017-07-01T23:00:00Z,30.3288,-87.8293,0.0,5.75,184.0,-999.0,'1111122,1111122,1111122' 
DISL,ioos:station:DISL:BSCA:1,2017-07-01T23:30:00Z,30.3288,-87.8293,0.0,5.85,182.2,-999.0,'1111122,1111122,1111122' 
DISL,ioos:station:DISL:BSCA:1,2017-07-02T00:00:00Z,30.3288,-87.8293,0.0,5.18,184.3,-999.0,'1111122,1111122,1111122' 
DISL,ioos:station:DISL:BSCA:1,2017-07-02T00:30:00Z,30.3288,-87.8293,0.0,4.86,203.4,-999.0,'1111122,1111122,1111122' 
DISL,ioos:station:DISL:BSCA:1,2017-07-02T01:00:00Z,30.3288,-87.8293,0.0,5.53,211.2,-999.0,'1111122,1111122,1111122' 
DISL,ioos:station:DISL:BSCA:1,2017-07-02T01:30:00Z,30.3288,-87.8293,0.0,5.35,212.2,-999.0,'1111122,1111122,1111122' 
DISL,ioos:station:DISL:BSCA:1,2017-07-02T02:00:00Z,30.3288,-87.8293,0.0,5.38,204.8,-999.0,'1111122,1111122,1111122' 
DISL,ioos:station:DISL:BSCA:1,2017-07-02T02:30:00Z,30.3288,-87.8293,0.0,4.42,201.8,-999.0,'1111122,1111122,1111122' 
DISL,ioos:station:DISL:BSCA:1,2017-07-02T03:00:00Z,30.3288,-87.8293,0.0,4.7,207.0,-999.0,'1111122,1111122,1111122' 
DISL,ioos:station:DISL:BSCA:1,2017-07-02T03:30:00Z,30.3288,-87.8293,0.0,4.36,210.5,-999.0,'1111122,1111122,1111122' 
DISL,ioos:station:DISL:BSCA:1,2017-07-02T04:00:00Z,30.3288,-87.8293,0.0,3.75,217.6,-999.0,'1111122,1111122,1111122' 
DISL,ioos:station:DISL:BSCA:1,2017-07-02T04:30:00Z,30.3288,-87.8293,0.0,3.74,207.5,-999.0,'1111122,1111122,1111122' 
DISL,ioos:station:DISL:BSCA:1,2017-07-02T05:00:00Z,30.3288,-87.8293,0.0,4.27,198.7,-999.0,'1111122,1111122,1111122' 
DISL,ioos:station:DISL:BSCA:1,2017-07-02T05:30:00Z,30.3288,-87.8293,0.0,4.36,219.3,-999.0,'1111122,1111122,1111122' 
DISL,ioos:station:DISL:BSCA:1,2017-07-02T06:00:00Z,30.3288,-87.8293,0.0,7.27,349.9,-999.0,'1111122,1111122,1111122' 
DISL,ioos:station:DISL:BSCA:1,2017-07-02T06:30:00Z,30.3288,-87.8293,0.0,4.07,38.04,-999.0,'1111122,1111122,1111122' 
DISL,ioos:station:DISL:BSCA:1,2017-07-02T07:00:00Z,30.3288,-87.8293,0.0,3.45,111.1,-999.0,'1111122,1111122,1111122' 
DISL,ioos:station:DISL:BSCA:1,2017-07-02T07:30:00Z,30.3288,-87.8293,0.0,1.26,29.94,-999.0,'1111122,1111122,1111122' 
DISL,ioos:station:DISL:BSCA:1,2017-07-02T08:00:00Z,30.3288,-87.8293,0.0,1.96,44.15,-999.0,'1111122,1111122,1111122' 
DISL,ioos:station:DISL:BSCA:1,2017-07-02T08:30:00Z,30.3288,-87.8293,0.0,1.02,77.87,-999.0,'1111122,1111122,1111122' 
DISL,ioos:station:DISL:BSCA:1,2017-07-02T09:00:00Z,30.3288,-87.8293,0.0,0.6,81.5,-999.0,'1111122,1111122,1111122' 
DISL,ioos:station:DISL:BSCA:1,2017-07-02T09:30:00Z,30.3288,-87.8293,0.0,4.36,200.8,-999.0,'1111122,1111122,1111122' 
DISL,ioos:station:DISL:BSCA:1,2017-07-02T10:00:00Z,30.3288,-87.8293,0.0,4.77,211.5,-999.0,'1111122,1111122,1111122' 
DISL,ioos:station:DISL:BSCA:1,2017-07-02T10:30:00Z,30.3288,-87.8293,0.0,5.42,218.6,-999.0,'1111122,1111122,1111122' 
DISL,ioos:station:DISL:BSCA:1,2017-07-02T11:00:00Z,30.3288,-87.8293,0.0,6.57,223.4,-999.0,'1111122,1111122,1111122' 
DISL,ioos:station:DISL:BSCA:1,2017-07-02T11:30:00Z,30.3288,-87.8293,0.0,6.39,225.1,-999.0,'1111122,1111122,1111122' 
DISL,ioos:station:DISL:BSCA:1,2017-07-02T12:00:00Z,30.3288,-87.8293,0.0,6.4,234.9,-999.0,'1111122,1111122,1111122' 
DISL,ioos:station:DISL:BSCA:1,2017-07-02T12:30:00Z,30.3288,-87.8293,0.0,6.21,239.8,-999.0,'1111122,1111122,1111122' 
DISL,ioos:station:DISL:BSCA:1,2017-07-02T13:00:00Z,30.3288,-87.8293,0.0,6.15,255.2,-999.0,'1111122,1111122,1111122' 
DISL,ioos:station:DISL:BSCA:1,2017-07-02T13:30:00Z,30.3288,-87.8293,0.0,6.42,252.8,-999.0,'1111122,1111122,1111122' 
DISL,ioos:station:DISL:BSCA:1,2017-07-02T14:00:00Z,30.3288,-87.8293,0.0,6.23,254.7,-999.0,'1111122,1111122,1111122' 
DISL,ioos:station:DISL:BSCA:1,2017-07-02T14:30:00Z,30.3288,-87.8293,0.0,4.63,278.7,-999.0,'1111122,1111122,1111122' 
DISL,ioos:station:DISL:BSCA:1,2017-07-02T15:00:00Z,30.3288,-87.8293,0.0,4.53,279.0,-999.0,'1111122,1111122,1111122' 
DISL,ioos:station:DISL:BSCA:1,2017-07-02T15:30:00Z,30.3288,-87.8293,0.0,6.0,245.1,-999.0,'1111122,1111122,1111122' 
DISL,ioos:station:DISL:BSCA:1,2017-07-02T16:00:00Z,30.3288,-87.8293,0.0,6.69,257.5,-999.0,'1111122,1111122,1111122' 
DISL,ioos:station:DISL:BSCA:1,2017-07-02T16:30:00Z,30.3288,-87.8293,0.0,6.19,270.1,-999.0,'1111122,1111122,1111122' 
DISL,ioos:station:DISL:BSCA:1,2017-07-02T17:00:00Z,30.3288,-87.8293,0.0,5.84,255.6,-999.0,'1111122,1111122,1111122' 
DISL,ioos:station:DISL:BSCA:1,2017-07-02T17:30:00Z,30.3288,-87.8293,0.0,5.33,258.6,-999.0,'1111122,1111122,1111122' 
DISL,ioos:station:DISL:BSCA:1,2017-07-02T18:00:00Z,30.3288,-87.8293,0.0,5.23,233.4,-999.0,'1111122,1111122,1111122' 
DISL,ioos:station:DISL:BSCA:1,2017-07-02T18:30:00Z,30.3288,-87.8293,0.0,5.75,231.6,-999.0,'1111122,1111122,1111122' 
DISL,ioos:station:DISL:BSCA:1,2017-07-02T19:00:00Z,30.3288,-87.8293,0.0,5.58,214.4,-999.0,'1111122,1111122,1111122' 
DISL,ioos:station:DISL:BSCA:1,2017-07-02T19:30:00Z,30.3288,-87.8293,0.0,6.6,228.3,-999.0,'1111122,1111122,1111122' 
DISL,ioos:station:DISL:BSCA:1,2017-07-02T20:00:00Z,30.3288,-87.8293,0.0,6.48,222.3,-999.0,'1111122,1111122,1111122' 
DISL,ioos:station:DISL:BSCA:1,2017-07-02T20:30:00Z,30.3288,-87.8293,0.0,6.3,226.7,-999.0,'1111122,1111122,1111122' 
DISL,ioos:station:DISL:BSCA:1,2017-07-02T21:00:00Z,30.3288,-87.8293,0.0,5.49,221.8,-999.0,'1111122,1111122,1111122' 
DISL,ioos:station:DISL:BSCA:1,2017-07-02T21:30:00Z,30.3288,-87.8293,0.0,5.62,229.5,-999.0,'1111122,1111122,1111122' 
DISL,ioos:station:DISL:BSCA:1,2017-07-02T22:00:00Z,30.3288,-87.8293,0.0,5.26,222.9,-999.0,'1111122,1111122,1111122' 
DISL,ioos:station:DISL:BSCA:1,2017-07-02T22:30:00Z,30.3288,-87.8293,0.0,5.43,222.8,-999.0,'1111122,1111122,1111122' 
DISL,ioos:station:DISL:BSCA:1,2017-07-02T23:00:00Z,30.3288,-87.8293,0.0,5.49,223.5,-999.0,'1111122,1111122,1111122' 
DISL,ioos:station:DISL:BSCA:1,2017-07-02T23:30:00Z,30.3288,-87.8293,0.0,5.48,227.7,-999.0,'1111122,1111122,1111122' 
DISL,ioos:station:DISL:BSCA:1,2017-07-03T00:00:00Z,30.3288,-87.8293,0.0,4.98,221.4,-999.0,'1111122,1111122,1111122' 
DISL,ioos:station:DISL:BSCA:1,2017-07-03T00:30:00Z,30.3288,-87.8293,0.0,5.35,230.6,-999.0,'1111122,1111122,1111122' 
DISL,ioos:station:DISL:BSCA:1,2017-07-03T01:00:00Z,30.3288,-87.8293,0.0,5.14,230.1,-999.0,'1111122,1111122,1111122' 
DISL,ioos:station:DISL:BSCA:1,2017-07-03T01:30:00Z,30.3288,-87.8293,0.0,4.39,219.4,-999.0,'1111122,1111122,1111122' 
DISL,ioos:station:DISL:BSCA:1,2017-07-03T02:00:00Z,30.3288,-87.8293,0.0,4.88,222.1,-999.0,'1111122,1111122,1111122' 
DISL,ioos:station:DISL:BSCA:1,2017-07-03T02:30:00Z,30.3288,-87.8293,0.0,4.32,205.9,-999.0,'1111122,1111122,1111122' 
DISL,ioos:station:DISL:BSCA:1,2017-07-03T03:00:00Z,30.3288,-87.8293,0.0,4.08,216.6,-999.0,'1111122,1111122,1111122' 
DISL,ioos:station:DISL:BSCA:1,2017-07-03T03:30:00Z,30.3288,-87.8293,0.0,3.78,219.1,-999.0,'1111122,1111122,1111122' 
DISL,ioos:station:DISL:BSCA:1,2017-07-03T04:00:00Z,30.3288,-87.8293,0.0,3.91,222.4,-999.0,'1111122,1111122,1111122' 
DISL,ioos:station:DISL:BSCA:1,2017-07-03T04:30:00Z,30.3288,-87.8293,0.0,2.96,208.5,-999.0,'1111122,1111122,1111122' 
DISL,ioos:station:DISL:BSCA:1,2017-07-03T05:00:00Z,30.3288,-87.8293,0.0,2.29,245.6,-999.0,'1111122,1111122,1111122' 
DISL,ioos:station:DISL:BSCA:1,2017-07-03T05:30:00Z,30.3288,-87.8293,0.0,2.7,232.0,-999.0,'1111122,1111122,1111122' 
DISL,ioos:station:DISL:BSCA:1,2017-07-03T06:00:00Z,30.3288,-87.8293,0.0,3.03,230.4,-999.0,'1111122,1111122,1111122' 
DISL,ioos:station:DISL:BSCA:1,2017-07-03T06:30:00Z,30.3288,-87.8293,0.0,3.57,224.7,-999.0,'1111122,1111122,1111122' 
DISL,ioos:station:DISL:BSCA:1,2017-07-03T07:00:00Z,30.3288,-87.8293,0.0,3.69,238.9,-999.0,'1111122,1111122,1111122' 
DISL,ioos:station:DISL:BSCA:1,2017-07-03T07:30:00Z,30.3288,-87.8293,0.0,3.92,235.0,-999.0,'1111122,1111122,1111122' 
DISL,ioos:station:DISL:BSCA:1,2017-07-03T08:00:00Z,30.3288,-87.8293,0.0,4.1,230.2,-999.0,'1111122,1111122,1111122' 
DISL,ioos:station:DISL:BSCA:1,2017-07-03T08:30:00Z,30.3288,-87.8293,0.0,4.19,240.9,-999.0,'1111122,1111122,1111122' 
DISL,ioos:station:DISL:BSCA:1,2017-07-03T09:00:00Z,30.3288,-87.8293,0.0,4.61,244.1,-999.0,'1111122,1111122,1111122' 
DISL,ioos:station:DISL:BSCA:1,2017-07-03T09:30:00Z,30.3288,-87.8293,0.0,4.75,243.9,-999.0,'1111122,1111122,1111122' 
DISL,ioos:station:DISL:BSCA:1,2017-07-03T10:00:00Z,30.3288,-87.8293,0.0,5.11,234.8,-999.0,'1111122,1111122,1111122' 
DISL,ioos:station:DISL:BSCA:1,2017-07-03T10:30:00Z,30.3288,-87.8293,0.0,4.83,241.1,-999.0,'1111122,1111122,1111122' 
DISL,ioos:station:DISL:BSCA:1,2017-07-03T11:00:00Z,30.3288,-87.8293,0.0,4.64,240.7,-999.0,'1111122,1111122,1111122' 
DISL,ioos:station:DISL:BSCA:1,2017-07-03T11:30:00Z,30.3288,-87.8293,0.0,4.99,263.4,-999.0,'1111122,1111122,1111122' 
DISL,ioos:station:DISL:BSCA:1,2017-07-03T12:00:00Z,30.3288,-87.8293,0.0,4.57,261.7,-999.0,'1111122,1111122,1111122' 
DISL,ioos:station:DISL:BSCA:1,2017-07-03T12:30:00Z,30.3288,-87.8293,0.0,4.52,284.6,-999.0,'1111122,1111122,1111122' 
DISL,ioos:station:DISL:BSCA:1,2017-07-03T13:00:00Z,30.3288,-87.8293,0.0,3.9,312.8,-999.0,'1111122,1111122,1111122' 
DISL,ioos:station:DISL:BSCA:1,2017-07-03T13:30:00Z,30.3288,-87.8293,0.0,4.21,305.2,-999.0,'1111122,1111122,1111122' 
DISL,ioos:station:DISL:BSCA:1,2017-07-03T14:00:00Z,30.3288,-87.8293,0.0,4.28,303.1,-999.0,'1111122,1111122,1111122' 
DISL,ioos:station:DISL:BSCA:1,2017-07-03T14:30:00Z,30.3288,-87.8293,0.0,4.6,300.5,-999.0,'1111122,1111122,1111122' 
DISL,ioos:station:DISL:BSCA:1,2017-07-03T15:00:00Z,30.3288,-87.8293,0.0,4.6,301.5,-999.0,'1111122,1111122,1111122' 
DISL,ioos:station:DISL:BSCA:1,2017-07-03T15:30:00Z,30.3288,-87.8293,0.0,4.05,300.4,-999.0,'1111122,1111122,1111122' 
DISL,ioos:station:DISL:BSCA:1,2017-07-03T16:00:00Z,30.3288,-87.8293,0.0,4.2,292.6,-999.0,'1111122,1111122,1111122' 
DISL,ioos:station:DISL:BSCA:1,2017-07-03T16:30:00Z,30.3288,-87.8293,0.0,3.96,288.2,-999.0,'1111122,1111122,1111122' 
DISL,ioos:station:DISL:BSCA:1,2017-07-03T17:00:00Z,30.3288,-87.8293,0.0,3.58,280.5,-999.0,'1111122,1111122,1111122' 
DISL,ioos:station:DISL:BSCA:1,2017-07-03T17:30:00Z,30.3288,-87.8293,0.0,2.75,275.1,-999.0,'1111122,1111122,1111122' 
DISL,ioos:station:DISL:BSCA:1,2017-07-03T18:00:00Z,30.3288,-87.8293,0.0,2.52,262.4,-999.0,'1111122,1111122,1111122' 
DISL,ioos:station:DISL:BSCA:1,2017-07-03T18:30:00Z,30.3288,-87.8293,0.0,2.34,245.6,-999.0,'1111122,1111122,1111122' 
DISL,ioos:station:DISL:BSCA:1,2017-07-03T19:00:00Z,30.3288,-87.8293,0.0,3.36,211.5,-999.0,'1111122,1111122,1111122' 
DISL,ioos:station:DISL:BSCA:1,2017-07-03T19:30:00Z,30.3288,-87.8293,0.0,3.98,213.5,-999.0,'1111122,1111122,1111122' 
DISL,ioos:station:DISL:BSCA:1,2017-07-03T20:00:00Z,30.3288,-87.8293,0.0,3.77,208.3,-999.0,'1111122,1111122,1111122' 
DISL,ioos:station:DISL:BSCA:1,2017-07-03T20:30:00Z,30.3288,-87.8293,0.0,4.53,198.8,-999.0,'1111122,1111122,1111122' 
DISL,ioos:station:DISL:BSCA:1,2017-07-03T21:00:00Z,30.3288,-87.8293,0.0,4.66,199.4,-999.0,'1111122,1111122,1111122' 
DISL,ioos:station:DISL:BSCA:1,2017-07-03T21:30:00Z,30.3288,-87.8293,0.0,5.35,198.9,-999.0,'1111122,1111122,1111122' 
DISL,ioos:station:DISL:BSCA:1,2017-07-03T22:00:00Z,30.3288,-87.8293,0.0,5.21,200.8,-999.0,'1111122,1111122,1111122' 
DISL,ioos:station:DISL:BSCA:1,2017-07-03T22:30:00Z,30.3288,-87.8293,0.0,5.22,198.6,-999.0,'1111122,1111122,1111122' 
DISL,ioos:station:DISL:BSCA:1,2017-07-03T23:00:00Z,30.3288,-87.8293,0.0,5.3,202.8,-999.0,'1111122,1111122,1111122' 
DISL,ioos:station:DISL:BSCA:1,2017-07-03T23:30:00Z,30.3288,-87.8293,0.0,5.14,193.0,-999.0,'1111122,1111122,1111122' 
DISL,ioos:station:DISL:BSCA:1,2017-07-04T00:00:00Z,30.3288,-87.8293,0.0,2.26,192.4,-999.0,'1111122,1111122,1111122' 
DISL,ioos:station:DISL:BSCA:1,2017-07-04T00:30:00Z,30.3288,-87.8293,0.0,5.27,195.3,-999.0,'1111122,1111122,1111122' 
DISL,ioos:station:DISL:BSCA:1,2017-07-04T01:00:00Z,30.3288,-87.8293,0.0,4.76,191.0,-999.0,'1111122,1111122,1111122' 
DISL,ioos:station:DISL:BSCA:1,2017-07-04T01:30:00Z,30.3288,-87.8293,0.0,4.57,187.3,-999.0,'1111122,1111122,1111122' 
DISL,ioos:station:DISL:BSCA:1,2017-07-04T02:00:00Z,30.3288,-87.8293,0.0,4.38,183.4,-999.0,'1111122,1111122,1111122' 
DISL,ioos:station:DISL:BSCA:1,2017-07-04T02:30:00Z,30.3288,-87.8293,0.0,4.18,179.4,-999.0,'1111122,1111122,1111122' 
DISL,ioos:station:DISL:BSCA:1,2017-07-04T03:00:00Z,30.3288,-87.8293,0.0,3.56,180.4,-999.0,'1111122,1111122,1111122' 
DISL,ioos:station:DISL:BSCA:1,2017-07-04T03:30:00Z,30.3288,-87.8293,0.0,4.01,181.6,-999.0,'1111122,1111122,1111122' 
DISL,ioos:station:DISL:BSCA:1,2017-07-04T04:00:00Z,30.3288,-87.8293,0.0,4.29,182.2,-999.0,'1111122,1111122,1111122' 
DISL,ioos:station:DISL:BSCA:1,2017-07-04T04:30:00Z,30.3288,-87.8293,0.0,4.62,183.4,-999.0,'1111122,1111122,1111122' 
DISL,ioos:station:DISL:BSCA:1,2017-07-04T05:00:00Z,30.3288,-87.8293,0.0,4.89,179.6,-999.0,'1111122,1111122,1111122' 
DISL,ioos:station:DISL:BSCA:1,2017-07-04T05:30:00Z,30.3288,-87.8293,0.0,4.53,186.1,-999.0,'1111122,1111122,1111122' 
DISL,ioos:station:DISL:BSCA:1,2017-07-04T06:00:00Z,30.3288,-87.8293,0.0,5.63,195.2,-999.0,'1111122,1111122,1111122' 
DISL,ioos:station:DISL:BSCA:1,2017-07-04T06:30:00Z,30.3288,-87.8293,0.0,5.32,195.6,-999.0,'1111122,1111122,1111122' 
DISL,ioos:station:DISL:BSCA:1,2017-07-04T07:00:00Z,30.3288,-87.8293,0.0,4.57,200.1,-999.0,'1111122,1111122,1111122' 
DISL,ioos:station:DISL:BSCA:1,2017-07-04T07:30:00Z,30.3288,-87.8293,0.0,4.67,197.2,-999.0,'1111122,1111122,1111122' 
DISL,ioos:station:DISL:BSCA:1,2017-07-04T08:00:00Z,30.3288,-87.8293,0.0,4.9,206.6,-999.0,'1111122,1111122,1111122' 
DISL,ioos:station:DISL:BSCA:1,2017-07-04T08:30:00Z,30.3288,-87.8293,0.0,5.35,204.8,-999.0,'1111122,1111122,1111122' 
DISL,ioos:station:DISL:BSCA:1,2017-07-04T09:00:00Z,30.3288,-87.8293,0.0,5.55,210.1,-999.0,'1111122,1111122,1111122' 
DISL,ioos:station:DISL:BSCA:1,2017-07-04T09:30:00Z,30.3288,-87.8293,0.0,5.19,212.0,-999.0,'1111122,1111122,1111122' 
DISL,ioos:station:DISL:BSCA:1,2017-07-04T10:00:00Z,30.3288,-87.8293,0.0,5.21,219.5,-999.0,'1111122,1111122,1111122' 
DISL,ioos:station:DISL:BSCA:1,2017-07-04T10:30:00Z,30.3288,-87.8293,0.0,4.62,228.4,-999.0,'1111122,1111122,1111122' 
DISL,ioos:station:DISL:BSCA:1,2017-07-04T11:00:00Z,30.3288,-87.8293,0.0,4.19,241.8,-999.0,'1111122,1111122,1111122' 
DISL,ioos:station:DISL:BSCA:1,2017-07-04T11:30:00Z,30.3288,-87.8293,0.0,3.62,240.1,-999.0,'1111122,1111122,1111122' 
DISL,ioos:station:DISL:BSCA:1,2017-07-04T12:00:00Z,30.3288,-87.8293,0.0,3.57,235.5,-999.0,'1111122,1111122,1111122' 
DISL,ioos:station:DISL:BSCA:1,2017-07-04T12:30:00Z,30.3288,-87.8293,0.0,3.07,242.9,-999.0,'1111122,1111122,1111122' 
DISL,ioos:station:DISL:BSCA:1,2017-07-04T13:00:00Z,30.3288,-87.8293,0.0,2.54,237.5,-999.0,'1111122,1111122,1111122' 
DISL,ioos:station:DISL:BSCA:1,2017-07-04T13:30:00Z,30.3288,-87.8293,0.0,2.4,240.2,-999.0,'1111122,1111122,1111122' 
DISL,ioos:station:DISL:BSCA:1,2017-07-04T14:00:00Z,30.3288,-87.8293,0.0,2.19,256.6,-999.0,'1111122,1111122,1111122' 
DISL,ioos:station:DISL:BSCA:1,2017-07-04T14:30:00Z,30.3288,-87.8293,0.0,2.2,297.8,-999.0,'1111122,1111122,1111122' 
DISL,ioos:station:DISL:BSCA:1,2017-07-04T15:00:00Z,30.3288,-87.8293,0.0,1.83,281.9,-999.0,'1111122,1111122,1111122' 
DISL,ioos:station:DISL:BSCA:1,2017-07-04T15:30:00Z,30.3288,-87.8293,0.0,1.97,269.4,-999.0,'1111122,1111122,1111122' 
DISL,ioos:station:DISL:BSCA:1,2017-07-04T16:00:00Z,30.3288,-87.8293,0.0,1.88,265.7,-999.0,'1111122,1111122,1111122' 
DISL,ioos:station:DISL:BSCA:1,2017-07-04T16:30:00Z,30.3288,-87.8293,0.0,1.82,283.1,-999.0,'1111122,1111122,1111122' 
DISL,ioos:station:DISL:BSCA:1,2017-07-04T17:00:00Z,30.3288,-87.8293,0.0,1.64,266.9,-999.0,'1111122,1111122,1111122' 
DISL,ioos:station:DISL:BSCA:1,2017-07-04T17:30:00Z,30.3288,-87.8293,0.0,1.87,249.1,-999.0,'1111122,1111122,1111122' 
DISL,ioos:station:DISL:BSCA:1,2017-07-04T18:00:00Z,30.3288,-87.8293,0.0,2.15,252.0,-999.0,'1111122,1111122,1111122' 
DISL,ioos:station:DISL:BSCA:1,2017-07-04T18:30:00Z,30.3288,-87.8293,0.0,2.49,206.0,-999.0,'1111122,1111122,1111122' 
DISL,ioos:station:DISL:BSCA:1,2017-07-04T19:00:00Z,30.3288,-87.8293,0.0,3.01,193.4,-999.0,'1111122,1111122,1111122' 
DISL,ioos:station:DISL:BSCA:1,2017-07-04T19:30:00Z,30.3288,-87.8293,0.0,3.48,197.5,-999.0,'1111122,1111122,1111122' 
DISL,ioos:station:DISL:BSCA:1,2017-07-04T20:00:00Z,30.3288,-87.8293,0.0,2.98,194.3,-999.0,'1111122,1111122,1111122' 
DISL,ioos:station:DISL:BSCA:1,2017-07-04T20:30:00Z,30.3288,-87.8293,0.0,2.58,191.9,-999.0,'1111122,1111122,1111122' 
DISL,ioos:station:DISL:BSCA:1,2017-07-04T21:00:00Z,30.3288,-87.8293,0.0,2.87,194.2,-999.0,'1111122,1111122,1111122' 
DISL,ioos:station:DISL:BSCA:1,2017-07-04T21:30:00Z,30.3288,-87.8293,0.0,3.11,190.9,-999.0,'1111122,1111122,1111122' 
DISL,ioos:station:DISL:BSCA:1,2017-07-04T22:00:00Z,30.3288,-87.8293,0.0,2.02,181.5,-999.0,'1111122,1111122,1111122' 
DISL,ioos:station:DISL:BSCA:1,2017-07-04T22:30:00Z,30.3288,-87.8293,0.0,4.75,188.8,-999.0,'1111122,1111122,1111122' 
DISL,ioos:station:DISL:BSCA:1,2017-07-04T23:00:00Z,30.3288,-87.8293,0.0,4.66,178.1,-999.0,'1111122,1111122,1111122' 
DISL,ioos:station:DISL:BSCA:1,2017-07-04T23:30:00Z,30.3288,-87.8293,0.0,4.35,183.8,-999.0,'1111122,1111122,1111122' 
DISL,ioos:station:DISL:BSCA:1,2017-07-05T00:00:00Z,30.3288,-87.8293,0.0,4.75,189.2,-999.0,'1111122,1111122,1111122' 
DISL,ioos:station:DISL:BSCA:1,2017-07-05T00:30:00Z,30.3288,-87.8293,0.0,5.03,172.0,-999.0,'1111122,1111122,1111122' 
DISL,ioos:station:DISL:BSCA:1,2017-07-05T01:00:00Z,30.3288,-87.8293,0.0,4.98,185.4,-999.0,'1111122,1111122,1111122' 
DISL,ioos:station:DISL:BSCA:1,2017-07-05T01:30:00Z,30.3288,-87.8293,0.0,5.16,177.6,-999.0,'1111122,1111122,1111122' 
DISL,ioos:station:DISL:BSCA:1,2017-07-05T02:00:00Z,30.3288,-87.8293,0.0,5.34,170.6,-999.0,'1111122,1111122,1111122' 
DISL,ioos:station:DISL:BSCA:1,2017-07-05T02:30:00Z,30.3288,-87.8293,0.0,5.42,171.7,-999.0,'1111122,1111122,1111122' 
DISL,ioos:station:DISL:BSCA:1,2017-07-05T03:00:00Z,30.3288,-87.8293,0.0,4.91,180.3,-999.0,'1111122,1111122,1111122' 
DISL,ioos:station:DISL:BSCA:1,2017-07-05T03:30:00Z,30.3288,-87.8293,0.0,4.7,175.9,-999.0,'1111122,1111122,1111122' 
DISL,ioos:station:DISL:BSCA:1,2017-07-05T04:00:00Z,30.3288,-87.8293,0.0,4.42,180.7,-999.0,'1111122,1111122,1111122' 
DISL,ioos:station:DISL:BSCA:1,2017-07-05T04:30:00Z,30.3288,-87.8293,0.0,4.16,183.6,-999.0,'1111122,1111122,1111122' 
DISL,ioos:station:DISL:BSCA:1,2017-07-05T05:00:00Z,30.3288,-87.8293,0.0,3.62,184.0,-999.0,'1111122,1111122,1111122' 
DISL,ioos:station:DISL:BSCA:1,2017-07-05T05:30:00Z,30.3288,-87.8293,0.0,3.94,181.0,-999.0,'1111122,1111122,1111122' 